Clarksville, TN

3:34 AM CST on November 23, 2017 (GMT -0600)
Outlaw

Weather History for KCKV - October, 2014

Change the Weather History Date:

Monday, October 6, 2014

  Actual Average Record
Temperature  
Mean Temperature 64 °F 62 °F  
Max Temperature 76 °F 75 °F 93 °F (1951)
Min Temperature 52 °F 50 °F 31 °F (1980)
Degree Days  
Heating Degree Days 1    
Month to date heating degree days 34  
Since 1 July heating degree days 60  
Cooling Degree Days 0    
Month to date cooling degree days 17  
Year to date cooling degree days  
Growing Degree Days 14 (Base 50)    
Moisture  
Dew Point 55 °F    
Average Humidity 70    
Maximum Humidity 90    
Minimum Humidity 49    
Precipitation  
Precipitation 0.20 in 0.13 in 1.49 in (1949)
Month to date precipitation 0.62 0.77  
Year to date precipitation 37.43  
Sea Level Pressure  
Sea Level Pressure 29.82 in    
Wind  
Wind Speed 10 mph (SSW)    
Max Wind Speed 23 mph    
Max Gust Speed 30 mph    
Visibility 9 miles    
Events Rain , Thunderstorm    
T = Trace of Precipitation, MM = Missing Value Source: NWS Daily Summary

Daily Weather History Graph

Daily Weather History Graph

Search for Another Location

Airport or City:

Trip Planner

Search our weather history database for the weather conditions in past years. The results will help you decide how hot, cold, wet, or windy it might be!

Date:

Astronomy

Oct. 06, 2014 Rise Set
Actual Time 6:49 AM CDT 6:25 PM CDT
Civil Twilight 6:23 AM CDT 6:51 PM CDT
Nautical Twilight 5:53 AM CDT 7:21 PM CDT
Astronomical Twilight 5:23 AM CDT 7:51 PM CDT
Moon 5:20 PM CDT (10/6) 4:38 AM CDT (10/6)
Length of Visible Light 12h 28m
Length of Day
11h 36m
Waxing Gibbous, 96% of the Moon is Illuminated
Oct 6
Waxing Gibbous
Oct 8
Full
Oct 15
Last Quarter
Oct 23
New
Oct 30
First Quarter

Hourly Weather History & Observations

Time (CDT) Temp. Dew Point Humidity Pressure Visibility Wind Dir Wind Speed Gust Speed Precip Events Conditions
12:00 AM 62.1 °F 53.1 °F 72% 29.84 in 10.0 mi Variable 4.6 mph - 0.00 in Rain , Thunderstorm Light Thunderstorms and Rain
12:26 AM 60.1 °F 51.1 °F 72% 29.83 in 10.0 mi South 5.8 mph - 0.00 in   Scattered Clouds
12:52 AM 59.0 °F 51.1 °F 75% 29.82 in 10.0 mi South 5.8 mph - 0.00 in   Clear
1:52 AM 59.0 °F 50.0 °F 72% 29.81 in 10.0 mi SSW 8.1 mph - N/A   Clear
2:52 AM 60.1 °F 50.0 °F 69% 29.81 in 10.0 mi SW 6.9 mph - N/A   Clear
3:52 AM 53.1 °F 50.0 °F 89% 29.79 in 10.0 mi Calm Calm - N/A   Clear
4:52 AM 54.0 °F 50.0 °F 86% 29.80 in 10.0 mi SE 5.8 mph - N/A   Clear
5:52 AM 55.9 °F 50.0 °F 80% 29.79 in 10.0 mi South 5.8 mph - N/A   Partly Cloudy
6:12 AM 57.0 °F 51.1 °F 81% 29.84 in 9.0 mi WSW 5.8 mph - 0.01 in Rain , Thunderstorm Light Rain
6:31 AM 57.9 °F 54.0 °F 87% 29.85 in 2.5 mi SW 13.8 mph 27.6 mph 0.12 in Rain , Thunderstorm Heavy Rain
6:39 AM 57.0 °F 55.0 °F 93% 29.82 in 5.0 mi SW 5.8 mph 21.9 mph 0.15 in Rain , Thunderstorm Rain
6:52 AM 57.0 °F 55.0 °F 93% 29.78 in 6.0 mi South 6.9 mph - 0.19 in Rain Light Rain
7:52 AM 57.0 °F 55.0 °F 93% 29.80 in 10.0 mi South 9.2 mph - 0.00 in   Overcast
8:52 AM 59.0 °F 55.9 °F 90% 29.81 in 10.0 mi South 15.0 mph - N/A   Overcast
9:52 AM 64.0 °F 57.0 °F 78% 29.81 in 10.0 mi SW 9.2 mph - N/A   Clear
10:52 AM 69.1 °F 55.9 °F 63% 29.81 in 10.0 mi SW 15.0 mph 21.9 mph N/A   Partly Cloudy
11:52 AM 71.1 °F 55.9 °F 59% 29.82 in 10.0 mi West 16.1 mph 21.9 mph N/A   Mostly Cloudy
12:52 PM 73.0 °F 54.0 °F 51% 29.81 in 10.0 mi West 19.6 mph 27.6 mph N/A   Scattered Clouds
1:52 PM 73.0 °F 55.0 °F 53% 29.80 in 10.0 mi SSW 13.8 mph 20.7 mph N/A   Partly Cloudy
2:52 PM 73.9 °F 55.9 °F 53% 29.78 in 10.0 mi SW 17.3 mph 27.6 mph N/A   Partly Cloudy
3:01 PM 75.0 °F 55.0 °F 50% 29.79 in 10.0 mi SW 15.0 mph 27.6 mph N/A Thunderstorm Partly Cloudy
3:44 PM 75.0 °F 54.0 °F 48% 29.79 in 10.0 mi SW 19.6 mph 26.5 mph N/A   Scattered Clouds
3:52 PM 73.9 °F 53.1 °F 48% 29.79 in 10.0 mi WSW 13.8 mph 27.6 mph N/A   Scattered Clouds
4:52 PM 73.0 °F 55.0 °F 53% 29.78 in 10.0 mi SW 11.5 mph - N/A   Clear
5:52 PM 71.1 °F 54.0 °F 55% 29.80 in 10.0 mi WSW 8.1 mph - N/A   Clear
6:52 PM 66.0 °F 59.0 °F 78% 29.80 in 10.0 mi SSW 6.9 mph - 0.01 in   Partly Cloudy
7:52 PM 64.9 °F 59.0 °F 81% 29.83 in 10.0 mi SSW 6.9 mph - N/A   Clear
8:52 PM 64.0 °F 59.0 °F 84% 29.86 in 10.0 mi Calm Calm - N/A   Clear
9:52 PM 63.0 °F 59.0 °F 87% 29.87 in 10.0 mi SSW 6.9 mph - N/A   Clear
10:52 PM 64.0 °F 59.0 °F 84% 29.88 in 10.0 mi SSW 9.2 mph - N/A   Scattered Clouds
11:52 PM 64.0 °F 60.1 °F 87% 29.88 in 10.0 mi SSW 6.9 mph - N/A   Clear